TimeCST,TemperatureF,Dew PointF,Humidity,Sea Level PressureIn,VisibilityMPH,Wind Direction,Wind SpeedMPH,Gust SpeedMPH,PrecipitationIn,Events,Conditions,WindDirDegrees,DateUTC
12:15 AM,50.2,50.2,100,30.07,5.0,ENE,8.1,-,N/A,,Overcast,70,2014-01-02 06:15:00
12:35 AM,50.0,50.0,100,30.05,4.0,East,5.8,-,N/A,,Overcast,90,2014-01-02 06:35:00
12:55 AM,50.0,50.0,100,30.04,4.0,East,5.8,-,N/A,Rain,Rain,80,2014-01-02 06:55:00
1:15 AM,50.0,50.0,100,30.05,4.0,Calm,Calm,-,0.01,,Light Drizzle,0,2014-01-02 07:15:00
1:35 AM,50.4,50.4,100,30.05,4.0,NE,3.5,-,0.01,,Overcast,50,2014-01-02 07:35:00
1:55 AM,50.4,50.4,100,30.05,3.0,North,4.6,-,0.01,,Overcast,360,2014-01-02 07:55:00
2:15 AM,50.4,50.4,100,30.05,3.0,North,5.8,-,N/A,Rain,Rain,360,2014-01-02 08:15:00
2:35 AM,50.2,50.2,100,30.04,3.0,NNE,4.6,-,N/A,Rain,Rain,20,2014-01-02 08:35:00
2:55 AM,50.2,50.2,100,30.03,2.0,NE,3.5,-,N/A,,Light Drizzle,40,2014-01-02 08:55:00
3:15 AM,50.4,50.4,100,30.01,1.5,East,4.6,-,N/A,,Light Drizzle,80,2014-01-02 09:15:00
3:35 AM,50.4,50.4,100,30.01,1.0,East,3.5,-,N/A,Rain,Light Rain,80,2014-01-02 09:35:00
3:55 AM,50.5,50.5,100,29.99,1.5,ENE,4.6,-,N/A,,Overcast,70,2014-01-02 09:55:00
4:15 AM,50.5,50.5,100,29.98,2.5,ENE,4.6,-,N/A,Rain,Light Rain,60,2014-01-02 10:15:00
4:35 AM,50.5,50.5,100,29.98,2.5,East,3.5,-,N/A,,Overcast,80,2014-01-02 10:35:00
4:55 AM,50.5,50.5,100,29.97,1.8,East,4.6,-,N/A,,Overcast,100,2014-01-02 10:55:00
5:15 AM,50.7,50.7,100,29.97,3.0,ENE,3.5,-,N/A,,Light Drizzle,70,2014-01-02 11:15:00
5:35 AM,50.9,50.9,100,29.97,3.0,NE,4.6,-,N/A,Rain,Rain,50,2014-01-02 11:35:00
5:55 AM,50.9,50.9,100,29.97,4.0,East,3.5,-,N/A,Rain,Rain,80,2014-01-02 11:55:00
6:15 AM,50.9,50.9,100,29.95,3.0,ENE,5.8,-,N/A,,Overcast,70,2014-01-02 12:15:00
6:35 AM,50.9,50.9,100,29.94,3.0,East,5.8,-,0.01,,Overcast,100,2014-01-02 12:35:00
6:55 AM,50.9,50.9,100,29.93,1.8,ENE,4.6,-,0.01,,Overcast,70,2014-01-02 12:55:00
7:15 AM,51.3,51.3,100,29.93,0.5,ENE,3.5,-,N/A,Fog,Fog,70,2014-01-02 13:15:00
7:30 AM,51.4,51.4,100,29.93,0.5,Calm,Calm,-,N/A,Fog,Fog,0,2014-01-02 13:30:00
7:55 AM,51.8,51.8,100,29.94,0.8,Calm,Calm,-,N/A,,Overcast,0,2014-01-02 13:55:00
8:15 AM,52.0,52.0,100,29.94,0.8,ESE,3.5,-,N/A,,Overcast,120,2014-01-02 14:15:00
8:35 AM,52.3,52.3,100,29.95,1.2,Calm,Calm,-,N/A,,Drizzle,0,2014-01-02 14:35:00
8:55 AM,52.7,52.7,100,29.96,2.0,Calm,Calm,-,N/A,Rain,Light Rain,0,2014-01-02 14:55:00
9:15 AM,53.1,53.1,100,29.96,0.8,SSE,4.6,-,N/A,Rain,Rain,160,2014-01-02 15:15:00
9:35 AM,53.1,53.1,100,29.95,0.5,SSE,4.6,-,N/A,Rain,Light Rain,150,2014-01-02 15:35:00
9:55 AM,53.4,53.4,100,29.94,0.5,SSE,3.5,-,N/A,Rain,Light Rain,160,2014-01-02 15:55:00
10:15 AM,54.0,54.0,100,29.93,0.2,South,4.6,-,N/A,Rain,Light Rain,170,2014-01-02 16:15:00
10:35 AM,54.5,54.5,100,29.96,0.8,WNW,12.7,17.3,N/A,Rain,Light Rain,290,2014-01-02 16:35:00
10:55 AM,54.1,54.1,100,29.94,7.0,WNW,5.8,-,N/A,Rain,Heavy Rain,300,2014-01-02 16:55:00
11:15 AM,54.5,54.5,100,29.93,4.0,West,3.5,-,N/A,,Drizzle,270,2014-01-02 17:15:00
11:35 AM,55.4,55.4,100,29.92,10.0,Calm,Calm,-,N/A,,Light Drizzle,0,2014-01-02 17:35:00
11:55 AM,56.1,55.9,99,29.90,10.0,WNW,4.6,-,N/A,Rain,Light Rain,300,2014-01-02 17:55:00
12:15 PM,56.3,55.9,99,29.92,10.0,West,8.1,-,N/A,,Overcast,280,2014-01-02 18:15:00
12:30 PM,55.9,55.4,98,29.91,10.0,WNW,11.5,16.1,0.01,Rain,Rain,290,2014-01-02 18:30:00
12:55 PM,55.4,54.9,98,29.91,4.0,NW,15.0,23.0,0.01,,Overcast,310,2014-01-02 18:55:00
1:15 PM,55.8,54.7,96,29.91,10.0,NW,12.7,19.6,N/A,,Overcast,310,2014-01-02 19:15:00
1:35 PM,56.1,54.1,93,29.89,10.0,NW,17.3,23.0,N/A,,Mostly Cloudy,320,2014-01-02 19:35:00
1:55 PM,56.3,52.7,88,29.90,10.0,NNW,13.8,24.2,N/A,,Mostly Cloudy,330,2014-01-02 19:55:00
2:15 PM,56.7,52.0,84,29.91,10.0,NW,13.8,17.3,N/A,,Scattered Clouds,320,2014-01-02 20:15:00
2:35 PM,56.7,51.4,83,29.91,10.0,NW,11.5,16.1,N/A,,Scattered Clouds,320,2014-01-02 20:35:00
2:55 PM,56.5,50.4,80,29.91,10.0,NW,11.5,-,N/A,,Scattered Clouds,310,2014-01-02 20:55:00
3:15 PM,56.3,49.5,78,29.91,10.0,NW,9.2,-,N/A,,Scattered Clouds,320,2014-01-02 21:15:00
3:35 PM,56.5,48.4,74,29.93,10.0,NW,12.7,20.7,N/A,,Scattered Clouds,320,2014-01-02 21:35:00
3:55 PM,56.3,47.5,72,29.94,10.0,NW,16.1,24.2,N/A,,Scattered Clouds,320,2014-01-02 21:55:00
4:15 PM,54.1,45.3,72,29.96,10.0,NNW,16.1,28.8,N/A,,Overcast,330,2014-01-02 22:15:00
4:35 PM,52.5,42.6,69,29.98,10.0,NW,19.6,29.9,N/A,,Mostly Cloudy,320,2014-01-02 22:35:00
4:55 PM,50.5,40.3,68,30.00,10.0,NW,19.6,32.2,N/A,,Scattered Clouds,320,2014-01-02 22:55:00
5:15 PM,48.9,40.5,73,30.01,10.0,NW,17.3,23.0,N/A,,Mostly Cloudy,320,2014-01-02 23:15:00
5:30 PM,48.0,39.7,73,30.03,10.0,NW,23.0,29.9,N/A,,Scattered Clouds,320,2014-01-02 23:30:00
5:55 PM,46.8,38.8,74,30.05,10.0,NW,11.5,23.0,N/A,,Scattered Clouds,320,2014-01-02 23:55:00
6:15 PM,45.5,38.5,76,30.07,10.0,NW,16.1,21.9,N/A,,Scattered Clouds,320,2014-01-03 00:15:00
6:35 PM,44.8,35.8,71,30.08,10.0,NNW,19.6,28.8,N/A,,Clear,330,2014-01-03 00:35:00
6:55 PM,43.9,34.7,70,30.09,10.0,NNW,13.8,27.6,N/A,,Clear,330,2014-01-03 00:55:00
7:15 PM,43.2,32.5,66,30.10,10.0,NNW,18.4,26.5,N/A,,Clear,340,2014-01-03 01:15:00
7:35 PM,42.4,32.9,69,30.11,10.0,NNW,13.8,20.7,N/A,,Clear,330,2014-01-03 01:35:00
7:55 PM,41.5,33.8,74,30.13,10.0,NNW,17.3,26.5,N/A,,Clear,330,2014-01-03 01:55:00
8:15 PM,40.6,32.0,71,30.13,10.0,NNW,16.1,24.2,N/A,,Clear,340,2014-01-03 02:15:00
8:35 PM,40.1,32.0,73,30.15,10.0,NNW,16.1,23.0,N/A,,Clear,330,2014-01-03 02:35:00
8:55 PM,39.2,31.6,74,30.16,10.0,NNW,15.0,26.5,N/A,,Clear,340,2014-01-03 02:55:00
9:15 PM,38.3,31.1,75,30.18,10.0,NNW,15.0,23.0,N/A,,Clear,330,2014-01-03 03:15:00
9:35 PM,37.4,29.1,72,30.18,10.0,NNW,17.3,24.2,N/A,,Clear,330,2014-01-03 03:35:00
9:55 PM,36.9,27.7,69,30.19,10.0,NNW,18.4,27.6,N/A,,Clear,330,2014-01-03 03:55:00
10:15 PM,36.5,27.5,70,30.19,10.0,NNW,13.8,21.9,N/A,,Clear,330,2014-01-03 04:15:00
10:35 PM,35.8,28.2,74,30.19,10.0,NW,17.3,23.0,N/A,,Clear,320,2014-01-03 04:35:00
10:55 PM,35.1,28.4,77,30.21,10.0,NNW,18.4,24.2,N/A,,Clear,330,2014-01-03 04:55:00
11:15 PM,34.7,27.5,75,30.22,10.0,NNW,15.0,24.2,N/A,,Clear,330,2014-01-03 05:15:00
11:35 PM,34.2,26.4,73,30.23,10.0,NNW,13.8,20.7,N/A,,Clear,330,2014-01-03 05:35:00
11:55 PM,33.8,25.7,72,30.23,10.0,NNW,11.5,20.7,N/A,,Clear,330,2014-01-03 05:55:00